When you browse on this site, cookies collect data to enhance your experience and personalize the content and advertising you see.
Visit our Privacy Policy to learn more. By continuing to use the site, you agree to this use of cookies and data.
  • In France
  • List of Countries
  • For 7 days
  • Water Temperature
  • Weather Map
  • Weather Widgets
  • user-avatar
    Login

    Hourly Weather Wuhu

    Today, 15 November, Friday

    Time Temperature Precipitation Wind Pressure Humidity
    00:00 +12°C° 0 mm 2 mps 763 mmHg 37%
    01:00 +12°C° 0 mm 2 mps 763 mmHg 36%
    02:00 +10°C° 0 mm 2 mps 762 mmHg 36%
    03:00 +10°C° 0 mm 2 mps 762 mmHg 37%
    04:00 +10°C° 0 mm 2 mps 762 mmHg 38%
    05:00 +10°C° 0 mm 2 mps 762 mmHg 39%
    06:00 +12°C° 0 mm 2 mps 762 mmHg 39%
    07:00 +12°C° 0 mm 2 mps 762 mmHg 38%
    08:00 +13°C° 0 mm 2 mps 762 mmHg 36%
    09:00 +16°C° 0 mm 2 mps 762 mmHg 30%
    10:00 +19°C° 0 mm 2 mps 762 mmHg 25%
    11:00 +23°C° 0 mm 2 mps 762 mmHg 19%
    12:00 +24°C° 0 mm 2 mps 761 mmHg 17%
    13:00 +25°C° 0 mm 2 mps 760 mmHg 15%
    14:00 +26°C° 0 mm 2 mps 759 mmHg 13%
    15:00 +25°C° 0 mm 2 mps 759 mmHg 15%
    16:00 +24°C° 0 mm 2 mps 760 mmHg 17%
    17:00 +23°C° 0 mm 2 mps 760 mmHg 19%
    18:00 +20°C° 0 mm 2 mps 760 mmHg 22%
    19:00 +19°C° 0 mm 2 mps 760 mmHg 25%
    20:00 +18°C° 0 mm 2 mps 759 mmHg 29%
    21:00 +17°C° 0 mm 2 mps 760 mmHg 32%
    22:00 +17°C° 0 mm 2 mps 760 mmHg 35%
    23:00 +17°C° 0 mm 2 mps 761 mmHg 38%

    Tomorrow, 16 November, Saturday

    Time Temperature Precipitation Wind Pressure Humidity
    00:00 +16°C° 0 mm 1 mps 760 mmHg 39%
    01:00 +16°C° 0 mm 1 mps 760 mmHg 41%
    02:00 +15°C° 0 mm 1 mps 759 mmHg 42%
    03:00 +15°C° 0 mm 1 mps 760 mmHg 41%
    04:00 +15°C° 0 mm 1 mps 760 mmHg 40%
    05:00 +15°C° 0 mm 1 mps 760 mmHg 39%
    06:00 +16°C° 0 mm 1 mps 760 mmHg 37%
    07:00 +18°C° 0 mm 1 mps 760 mmHg 36%
    08:00 +18°C° 0 mm 1 mps 760 mmHg 34%
    09:00 +21°C° 0 mm 1 mps 760 mmHg 30%
    10:00 +23°C° 0 mm 1 mps 760 mmHg 26%
    11:00 +26°C° 0 mm 1 mps 760 mmHg 22%
    12:00 +27°C° 0 mm 1 mps 759 mmHg 21%
    13:00 +28°C° 0 mm 1 mps 758 mmHg 21%
    14:00 +28°C° 0 mm 1 mps 758 mmHg 20%
    15:00 +27°C° 0 mm 2 mps 758 mmHg 22%
    16:00 +26°C° 0 mm 2 mps 758 mmHg 23%
    17:00 +25°C° 0 mm 2 mps 758 mmHg 24%
    18:00 +24°C° 0 mm 3 mps 758 mmHg 27%
    19:00 +22°C° 0 mm 3 mps 758 mmHg 30%
    20:00 +21°C° 0 mm 3 mps 758 mmHg 32%
    21:00 +21°C° 0 mm 3 mps 758 mmHg 36%
    22:00 +20°C° 0 mm 3 mps 758 mmHg 40%
    23:00 +20°C° 0 mm 3 mps 758 mmHg 43%

    Day after tomorrow, 17 November, Sunday

    Time Temperature Precipitation Wind Pressure Humidity
    00:00 +20°C° 0 mm 2 mps 758 mmHg 43%
    01:00 +20°C° 0 mm 2 mps 758 mmHg 43%
    02:00 +21°C° 0 mm 1 mps 758 mmHg 43%
    03:00 +21°C° 0 mm 1 mps 758 mmHg 43%
    04:00 +21°C° 0 mm 1 mps 758 mmHg 43%
    05:00 +21°C° 0 mm 1 mps 758 mmHg 44%
    06:00 +21°C° 0 mm 1 mps 758 mmHg 42%
    07:00 +20°C° 0 mm 0 mps 758 mmHg 41%
    08:00 +21°C° 0 mm 0 mps 758 mmHg 40%
    09:00 +25°C° 0 mm 1 mps 758 mmHg 36%
    10:00 +27°C° 0 mm 2 mps 759 mmHg 32%
    11:00 +29°C° 0 mm 3 mps 759 mmHg 28%
    12:00 +28°C° 0 mm 4 mps 759 mmHg 29%
    13:00 +27°C° 0 mm 4 mps 758 mmHg 30%
    14:00 +26°C° 0 mm 5 mps 758 mmHg 31%
    15:00 +23°C° 0.2 mm 6 mps 759 mmHg 45%
    16:00 +21°C° 0.2 mm 7 mps 760 mmHg 58%
    17:00 +18°C° 0.2 mm 8 mps 761 mmHg 72%
    18:00 +17°C° 0.2 mm 8 mps 762 mmHg 70%
    19:00 +17°C° 0.2 mm 8 mps 763 mmHg 69%
    20:00 +16°C° 0.2 mm 8 mps 765 mmHg 67%
    21:00 +15°C° 0.5 mm 8 mps 766 mmHg 67%
    22:00 +13°C° 0.5 mm 9 mps 766 mmHg 66%
    23:00 +11°C° 0.5 mm 9 mps 767 mmHg 66%

    18 November, Monday

    Time Temperature Precipitation Wind Pressure Humidity
    00:00 +11°C° 0.3 mm 9 mps 768 mmHg 68%
    01:00 +10°C° 0.3 mm 8 mps 768 mmHg 70%
    02:00 +10°C° 0.3 mm 7 mps 768 mmHg 72%
    03:00 +9°C° 0.2 mm 7 mps 769 mmHg 67%
    04:00 +8°C° 0.2 mm 7 mps 769 mmHg 62%
    05:00 +6°C° 0.2 mm 8 mps 769 mmHg 56%
    06:00 +7°C° 0.5 mm 6 mps 770 mmHg 50%
    07:00 +8°C° 0.5 mm 5 mps 771 mmHg 44%
    08:00 +8°C° 0.5 mm 4 mps 771 mmHg 39%
    09:00 +8°C° 0 mm 4 mps 771 mmHg 30%
    10:00 +8°C° 0 mm 4 mps 771 mmHg 22%
    11:00 +10°C° 0 mm 3 mps 772 mmHg 13%
    12:00 +11°C° 0 mm 4 mps 771 mmHg 12%
    13:00 +12°C° 0 mm 4 mps 770 mmHg 10%
    14:00 +13°C° 0 mm 4 mps 770 mmHg 9%
    15:00 +12°C° 0 mm 4 mps 770 mmHg 10%
    16:00 +11°C° 0 mm 3 mps 770 mmHg 11%
    17:00 +10°C° 0 mm 3 mps 770 mmHg 12%
    18:00 +10°C° 0 mm 3 mps 770 mmHg 14%
    19:00 +9°C° 0 mm 2 mps 771 mmHg 15%
    20:00 +8°C° 0 mm 2 mps 771 mmHg 17%
    21:00 +7°C° 0 mm 2 mps 771 mmHg 20%
    22:00 +7°C° 0 mm 2 mps 771 mmHg 23%
    23:00 +6°C° 0 mm 2 mps 771 mmHg 27%

    19 November, Tuesday

    Time Temperature Precipitation Wind Pressure Humidity
    00:00 +6°C° 0 mm 2 mps 771 mmHg 27%
    01:00 +6°C° 0 mm 2 mps 771 mmHg 28%
    02:00 +6°C° 0 mm 1 mps 771 mmHg 29%
    03:00 +6°C° 0 mm 1 mps 771 mmHg 29%
    04:00 +5°C° 0 mm 1 mps 771 mmHg 30%
    05:00 +5°C° 0 mm 1 mps 770 mmHg 31%
    06:00 +6°C° 0 mm 1 mps 771 mmHg 30%
    07:00 +6°C° 0 mm 1 mps 771 mmHg 29%
    08:00 +7°C° 0 mm 1 mps 771 mmHg 28%
    09:00 +8°C° 0 mm 2 mps 771 mmHg 24%
    10:00 +10°C° 0 mm 2 mps 771 mmHg 19%
    11:00 +12°C° 0 mm 3 mps 770 mmHg 14%
    12:00 +13°C° 0 mm 3 mps 770 mmHg 14%
    13:00 +14°C° 0 mm 3 mps 769 mmHg 13%
    14:00 +14°C° 0 mm 3 mps 768 mmHg 12%
    15:00 +14°C° 0 mm 3 mps 768 mmHg 14%
    16:00 +13°C° 0 mm 3 mps 768 mmHg 16%
    17:00 +13°C° 0 mm 2 mps 768 mmHg 18%
    18:00 +11°C° 0 mm 3 mps 769 mmHg 22%
    19:00 +11°C° 0 mm 3 mps 769 mmHg 26%
    20:00 +10°C° 0 mm 3 mps 769 mmHg 31%
    21:00 +10°C° 0 mm 3 mps 769 mmHg 32%
    22:00 +9°C° 0 mm 3 mps 769 mmHg 33%
    23:00 +9°C° 0 mm 3 mps 769 mmHg 34%

    20 November, Wednesday

    Time Temperature Precipitation Wind Pressure Humidity
    00:00 +9°C° 0 mm 3 mps 769 mmHg 35%
    01:00 +8°C° 0 mm 4 mps 769 mmHg 37%
    02:00 +8°C° 0 mm 4 mps 768 mmHg 39%
    03:00 +8°C° 0 mm 4 mps 768 mmHg 41%
    04:00 +8°C° 0 mm 4 mps 768 mmHg 42%
    05:00 +8°C° 0 mm 4 mps 768 mmHg 44%
    06:00 +8°C° 0 mm 4 mps 768 mmHg 46%
    07:00 +9°C° 0 mm 5 mps 768 mmHg 47%
    08:00 +9°C° 0 mm 5 mps 768 mmHg 49%
    09:00 +12°C° 0 mm 5 mps 768 mmHg 45%
    10:00 +14°C° 0 mm 5 mps 768 mmHg 41%
    11:00 +15°C° 0 mm 5 mps 768 mmHg 36%
    12:00 +16°C° 0 mm 5 mps 767 mmHg 35%
    13:00 +17°C° 0 mm 5 mps 767 mmHg 34%
    14:00 +19°C° 0 mm 4 mps 766 mmHg 32%
    15:00 +18°C° 0 mm 4 mps 766 mmHg 36%
    16:00 +17°C° 0 mm 3 mps 766 mmHg 39%
    17:00 +17°C° 0 mm 3 mps 766 mmHg 43%
    18:00 +16°C° 0 mm 3 mps 766 mmHg 46%
    19:00 +14°C° 0 mm 3 mps 767 mmHg 50%
    20:00 +13°C° 0 mm 3 mps 767 mmHg 54%
    21:00 +12°C° 0 mm 3 mps 767 mmHg 58%
    22:00 +12°C° 0 mm 3 mps 767 mmHg 61%
    23:00 +11°C° 0 mm 3 mps 767 mmHg 64%
    Show more